PIMOHWEATHER Station Historical Data
Daily Summary for June 16, 2020 Units:  Metric    English   Both
Daily Weekly Monthly Yearly
  High: Low: Average:
Temperature: 36.0 °C 27.0 °C 31 °C
Dew Point: 27.0 °C 25.0 °C 25.9 °C
Humidity: 90% 61% 76%
Wind Speed: 21km/h 0km/h 3.7km/h
Wind Gust: 24km/h - -
Wind- - SSW
Pressure: 1009.8 hPa 1005.1 hPa -
Precipitation: 0.00 mm    
 
 
Tabular Data for June 16, 2020
Time Temperature Dew Point Pressure Wind Wind Speed Wind Gust Humidity Rainfall Rate (Hourly) solar
00:04 29.0 °C 26.0 °C 1009.8 hPa Calm     85% 0.00 mm 0.00 W/m2
00:09 29.0 °C 26.0 °C 1009.5 hPa Calm     85% 0.00 mm 0.00 W/m2
00:14 29.0 °C 26.0 °C 1009.5 hPa Calm     85% 0.00 mm 0.00 W/m2
00:19 28.0 °C 26.0 °C 1009.5 hPa Calm     85% 0.00 mm 0.00 W/m2
00:24 28.0 °C 26.0 °C 1009.5 hPa Calm     85% 0.00 mm 0.00 W/m2
00:29 28.0 °C 26.0 °C 1009.5 hPa Calm     85% 0.00 mm 0.00 W/m2
00:34 28.0 °C 26.0 °C 1009.5 hPa Calm     85% 0.00 mm 0.00 W/m2
00:39 28.0 °C 26.0 °C 1009.1 hPa Calm     85% 0.00 mm 0.00 W/m2
00:44 28.0 °C 26.0 °C 1009.5 hPa Calm     85% 0.00 mm 0.00 W/m2
00:49 29.0 °C 26.0 °C 1009.1 hPa Calm     85% 0.00 mm 0.00 W/m2
00:54 29.0 °C 26.0 °C 1009.5 hPa Calm     85% 0.00 mm 0.00 W/m2
00:59 28.0 °C 26.0 °C 1009.2 hPa Calm     85% 0.00 mm 0.00 W/m2
01:04 28.0 °C 26.0 °C 1009.1 hPa Calm     85% 0.00 mm 0.00 W/m2
01:05 28.0 °C 25.0 °C 1008.8 hPa Calm     85% 0.00 mm 0.00 W/m2
01:14 28.0 °C 26.0 °C 1009.1 hPa Calm     86% 0.00 mm 0.00 W/m2
01:19 28.0 °C 26.0 °C 1009.1 hPa Calm     86% 0.00 mm 0.00 W/m2
01:24 28.0 °C 26.0 °C 1009.1 hPa Calm     86% 0.00 mm 0.00 W/m2
01:29 28.0 °C 26.0 °C 1008.8 hPa Calm     87% 0.00 mm 0.00 W/m2
01:34 28.0 °C 26.0 °C 1008.8 hPa Calm     87% 0.00 mm 0.00 W/m2
01:39 28.0 °C 26.0 °C 1008.8 hPa Calm     87% 0.00 mm 0.00 W/m2
01:44 28.0 °C 26.0 °C 1008.8 hPa Calm     87% 0.00 mm 0.00 W/m2
01:49 28.0 °C 26.0 °C 1008.8 hPa Calm     87% 0.00 mm 0.00 W/m2
01:54 28.0 °C 26.0 °C 1008.8 hPa Calm     87% 0.00 mm 0.00 W/m2
01:59 28.0 °C 26.0 °C 1008.8 hPa Calm     87% 0.00 mm 0.00 W/m2
02:04 28.0 °C 26.0 °C 1008.8 hPa Calm     87% 0.00 mm 0.00 W/m2
02:09 28.0 °C 26.0 °C 1008.8 hPa Calm     87% 0.00 mm 0.00 W/m2
02:14 28.0 °C 26.0 °C 1008.8 hPa Calm     87% 0.00 mm 0.00 W/m2
02:19 28.0 °C 26.0 °C 1008.8 hPa Calm     87% 0.00 mm 0.00 W/m2
02:24 28.0 °C 26.0 °C 1008.8 hPa Calm     87% 0.00 mm 0.00 W/m2
02:29 28.0 °C 26.0 °C 1008.8 hPa Calm     87% 0.00 mm 0.00 W/m2
02:34 28.0 °C 26.0 °C 1008.8 hPa Calm     87% 0.00 mm 0.00 W/m2
02:39 28.0 °C 26.0 °C 1008.8 hPa Calm     87% 0.00 mm 0.00 W/m2
02:44 28.0 °C 26.0 °C 1008.8 hPa Calm     87% 0.00 mm 0.00 W/m2
02:48 28.0 °C 26.0 °C 1008.8 hPa Calm     87% 0.00 mm 0.00 W/m2
02:59 28.0 °C 25.0 °C 1008.5 hPa Calm     87% 0.00 mm 0.00 W/m2
03:04 28.0 °C 26.0 °C 1008.6 hPa Calm     88% 0.00 mm 0.00 W/m2
03:09 28.0 °C 25.0 °C 1008.5 hPa Calm     87% 0.00 mm 0.00 W/m2
03:14 28.0 °C 25.0 °C 1008.5 hPa Calm     87% 0.00 mm 0.00 W/m2
03:19 28.0 °C 25.0 °C 1008.5 hPa Calm     87% 0.00 mm 0.00 W/m2
03:24 28.0 °C 25.0 °C 1008.7 hPa Calm     88% 0.00 mm 0.00 W/m2
03:29 28.0 °C 26.0 °C 1008.6 hPa Calm     88% 0.00 mm 0.00 W/m2
03:34 28.0 °C 25.0 °C 1008.6 hPa Calm     88% 0.00 mm 0.00 W/m2
03:39 28.0 °C 25.0 °C 1008.5 hPa Calm     88% 0.00 mm 0.00 W/m2
03:44 28.0 °C 25.0 °C 1008.5 hPa Calm     88% 0.00 mm 0.00 W/m2
03:49 27.0 °C 25.0 °C 1008.4 hPa Calm     88% 0.00 mm 0.00 W/m2
03:54 27.0 °C 25.0 °C 1008.4 hPa Calm     88% 0.00 mm 0.00 W/m2
03:59 27.0 °C 25.0 °C 1008.4 hPa Calm     89% 0.00 mm 0.00 W/m2
04:04 27.0 °C 25.0 °C 1008.5 hPa Calm     89% 0.00 mm 0.00 W/m2
04:09 27.0 °C 25.0 °C 1008.8 hPa Calm     89% 0.00 mm 0.00 W/m2
04:14 27.0 °C 25.0 °C 1008.8 hPa Calm     89% 0.00 mm 0.00 W/m2
04:19 27.0 °C 25.0 °C 1008.8 hPa Calm     89% 0.00 mm 0.00 W/m2
04:24 27.0 °C 25.0 °C 1008.8 hPa Calm     89% 0.00 mm 0.00 W/m2
04:29 27.0 °C 25.0 °C 1008.8 hPa Calm     90% 0.00 mm 0.00 W/m2
04:32 27.0 °C 25.0 °C 1008.8 hPa Calm     90% 0.00 mm 0.00 W/m2
04:44 27.0 °C 25.0 °C 1008.8 hPa Calm     90% 0.00 mm 0.00 W/m2
04:49 27.0 °C 25.0 °C 1008.8 hPa Calm     90% 0.00 mm 0.00 W/m2
04:54 27.0 °C 25.0 °C 1008.8 hPa Calm     90% 0.00 mm 0.00 W/m2
04:59 27.0 °C 25.0 °C 1008.7 hPa Calm     90% 0.00 mm 0.00 W/m2
05:04 27.0 °C 25.0 °C 1008.8 hPa Calm     90% 0.00 mm 0.00 W/m2
05:09 27.0 °C 25.0 °C 1008.8 hPa Calm     90% 0.00 mm 0.00 W/m2
05:14 27.0 °C 25.0 °C 1008.8 hPa Calm     90% 0.00 mm 0.00 W/m2
05:19 27.0 °C 25.0 °C 1009.1 hPa Calm     90% 0.00 mm 0.00 W/m2
05:24 27.0 °C 25.0 °C 1009.1 hPa Calm     90% 0.00 mm 0.00 W/m2
05:29 27.0 °C 25.0 °C 1009.1 hPa Calm     90% 0.00 mm 2.96 W/m2
05:34 27.0 °C 25.0 °C 1009.1 hPa Calm     90% 0.00 mm 8.08 W/m2
05:39 27.0 °C 25.0 °C 1009.1 hPa Calm     90% 0.00 mm 22.12 W/m2
05:44 27.0 °C 25.0 °C 1009.1 hPa Calm     90% 0.00 mm 38.39 W/m2
05:49 27.0 °C 25.0 °C 1009.1 hPa Calm     89% 0.00 mm 40.20 W/m2
05:54 27.0 °C 25.0 °C 1009.1 hPa Calm     89% 0.00 mm 42.07 W/m2
05:59 27.0 °C 25.0 °C 1009.1 hPa Calm     88% 0.00 mm 50.13 W/m2
06:04 27.0 °C 25.0 °C 1009.1 hPa Calm     88% 0.00 mm 60.49 W/m2
06:09 27.0 °C 25.0 °C 1009.1 hPa Calm     88% 0.00 mm 66.31 W/m2
06:14 28.0 °C 25.0 °C 1009.1 hPa Calm     88% 0.00 mm 77.37 W/m2
06:15 28.0 °C 25.0 °C 1009.1 hPa Calm     87% 0.00 mm 74.75 W/m2
06:24 28.0 °C 25.0 °C 1009.2 hPa Calm     85% 0.00 mm 70.02 W/m2
06:29 28.0 °C 25.0 °C 1009.5 hPa Calm     85% 0.00 mm 90.45 W/m2
06:34 28.0 °C 25.0 °C 1009.5 hPa Calm     85% 0.00 mm 152.06 W/m2
06:39 28.0 °C 26.0 °C 1009.1 hPa Calm     85% 0.00 mm 171.98 W/m2
06:44 28.0 °C 26.0 °C 1009.1 hPa Calm     85% 0.00 mm 170.31 W/m2
06:49 28.0 °C 25.0 °C 1009.5 hPa Calm     84% 0.00 mm 115.38 W/m2
06:59 28.0 °C 25.0 °C 1009.5 hPa NNE 1 km/h 4 km/h 84% 0.00 mm 76.21 W/m2
07:04 28.0 °C 25.0 °C 1009.5 hPa Calm     83% 0.00 mm 81.42 W/m2
07:09 28.0 °C 25.0 °C 1009.5 hPa Calm     83% 0.00 mm 87.47 W/m2
07:14 28.0 °C 25.0 °C 1009.8 hPa Calm     84% 0.00 mm 96.20 W/m2
07:19 28.0 °C 25.0 °C 1009.5 hPa Calm     84% 0.00 mm 112.81 W/m2
07:24 28.0 °C 25.0 °C 1009.5 hPa Calm     84% 0.00 mm 165.12 W/m2
07:29 29.0 °C 25.0 °C 1009.5 hPa Calm     83% 0.00 mm 201.63 W/m2
07:34 29.0 °C 26.0 °C 1009.5 hPa Calm     82% 0.00 mm 237.01 W/m2
07:39 30.0 °C 26.0 °C 1009.5 hPa Calm     81% 0.00 mm 240.88 W/m2
07:44 30.0 °C 26.0 °C 1009.5 hPa Calm     78% 0.00 mm 263.97 W/m2
07:49 30.0 °C 26.0 °C 1009.8 hPa Calm     77% 0.00 mm 323.89 W/m2
07:54 30.0 °C 26.0 °C 1009.5 hPa NNW 4 km/h 4 km/h 78% 0.00 mm 261.31 W/m2
07:59 31.0 °C 26.0 °C 1009.5 hPa Calm     78% 0.00 mm 397.61 W/m2
08:04 31.0 °C 26.0 °C 1009.5 hPa Calm     76% 0.00 mm 390.17 W/m2
08:09 31.0 °C 26.0 °C 1009.5 hPa SSE 1 km/h 4 km/h 74% 0.00 mm 312.00 W/m2
08:14 31.0 °C 26.0 °C 1009.5 hPa Calm     73% 0.00 mm 284.45 W/m2
08:19 31.0 °C 26.0 °C 1009.8 hPa Calm     74% 0.00 mm 175.74 W/m2
08:24 31.0 °C 26.0 °C 1009.8 hPa East 3 km/h 4 km/h 74% 0.00 mm 168.62 W/m2
08:29 31.0 °C 25.0 °C 1009.5 hPa SSE 5 km/h 8 km/h 72% 0.00 mm 226.54 W/m2
08:34 31.0 °C 25.0 °C 1009.5 hPa SE 5 km/h 8 km/h 72% 0.00 mm 322.91 W/m2
08:39 31.0 °C 25.0 °C 1009.8 hPa ESE 4 km/h 8 km/h 71% 0.00 mm 421.27 W/m2
08:44 32.0 °C 26.0 °C 1009.8 hPa Calm     70% 0.00 mm 438.15 W/m2
08:49 32.0 °C 26.0 °C 1009.8 hPa NW 10 km/h 12 km/h 72% 0.00 mm 423.72 W/m2
08:54 31.0 °C 26.0 °C 1009.8 hPa NW 6 km/h 8 km/h 74% 0.00 mm 364.70 W/m2
08:59 32.0 °C 26.0 °C 1009.5 hPa NW 6 km/h 8 km/h 73% 0.00 mm 277.94 W/m2
09:04 31.0 °C 26.0 °C 1009.5 hPa NNW 8 km/h 8 km/h 74% 0.00 mm 218.49 W/m2
09:09 31.0 °C 26.0 °C 1009.8 hPa NNW 9 km/h 12 km/h 74% 0.00 mm 241.90 W/m2
09:14 31.0 °C 26.0 °C 1009.5 hPa NW 7 km/h 8 km/h 73% 0.00 mm 265.34 W/m2
09:19 31.0 °C 26.0 °C 1009.5 hPa North 6 km/h 8 km/h 72% 0.00 mm 281.20 W/m2
09:24 31.0 °C 26.0 °C 1009.1 hPa NW 6 km/h 8 km/h 72% 0.00 mm 242.61 W/m2
09:29 31.0 °C 26.0 °C 1009.5 hPa WNW 10 km/h 12 km/h 72% 0.00 mm 210.02 W/m2
09:34 32.0 °C 26.0 °C 1009.5 hPa South 6 km/h 8 km/h 72% 0.00 mm 159.15 W/m2
09:39 31.0 °C 26.0 °C 1009.5 hPa SSW 3 km/h 8 km/h 74% 0.00 mm 126.71 W/m2
09:44 31.0 °C 26.0 °C 1009.1 hPa SSE 5 km/h 8 km/h 74% 0.00 mm 131.97 W/m2
09:49 31.0 °C 26.0 °C 1009.1 hPa SSE 3 km/h 4 km/h 74% 0.00 mm 189.18 W/m2
09:54 31.0 °C 26.0 °C 1009.1 hPa South 7 km/h 8 km/h 74% 0.00 mm 184.89 W/m2
09:59 31.0 °C 26.0 °C 1009.1 hPa SSE 3 km/h 4 km/h 74% 0.00 mm 178.85 W/m2
10:04 31.0 °C 26.0 °C 1009.1 hPa WSW 2 km/h 4 km/h 74% 0.00 mm 183.33 W/m2
10:09 31.0 °C 26.0 °C 1009.1 hPa WNW 9 km/h 12 km/h 74% 0.00 mm 222.18 W/m2
10:14 31.0 °C 26.0 °C 1009.1 hPa NW 14 km/h 16 km/h 74% 0.00 mm 237.67 W/m2
10:19 31.0 °C 26.0 °C 1009.1 hPa NW 10 km/h 16 km/h 75% 0.00 mm 327.54 W/m2
10:24 31.0 °C 26.0 °C 1009.1 hPa WNW 14 km/h 20 km/h 73% 0.00 mm 370.65 W/m2
10:29 31.0 °C 25.0 °C 1008.8 hPa NW 16 km/h 20 km/h 73% 0.00 mm 457.29 W/m2
10:34 32.0 °C 26.0 °C 1008.8 hPa WNW 17 km/h 20 km/h 72% 0.00 mm 495.33 W/m2
10:39 32.0 °C 25.0 °C 1009.1 hPa NW 12 km/h 16 km/h 70% 0.00 mm 530.18 W/m2
10:44 32.0 °C 26.0 °C 1008.8 hPa NW 18 km/h 20 km/h 69% 0.00 mm 562.18 W/m2
10:49 33.0 °C 26.0 °C 1008.8 hPa NW 13 km/h 16 km/h 69% 0.00 mm 573.80 W/m2
10:54 33.0 °C 26.0 °C 1008.8 hPa NW 13 km/h 16 km/h 68% 0.00 mm 555.57 W/m2
10:59 33.0 °C 26.0 °C 1008.8 hPa NW 15 km/h 16 km/h 68% 0.00 mm 587.28 W/m2
11:04 33.0 °C 26.0 °C 1008.5 hPa NW 15 km/h 20 km/h 67% 0.00 mm 576.66 W/m2
11:09 34.0 °C 26.0 °C 1008.5 hPa NW 14 km/h 16 km/h 68% 0.00 mm 591.30 W/m2
11:14 33.0 °C 26.0 °C 1008.1 hPa NW 21 km/h 24 km/h 68% 0.00 mm 568.12 W/m2
11:19 33.0 °C 26.0 °C 1008.5 hPa WNW 12 km/h 16 km/h 67% 0.00 mm 574.56 W/m2
11:24 33.0 °C 26.0 °C 1008.1 hPa NW 14 km/h 16 km/h 68% 0.00 mm 578.33 W/m2
11:29 34.0 °C 26.0 °C 1008.1 hPa WNW 13 km/h 16 km/h 67% 0.00 mm 502.33 W/m2
11:34 33.0 °C 26.0 °C 1008.1 hPa NW 9 km/h 12 km/h 67% 0.00 mm 575.37 W/m2
11:39 33.0 °C 26.0 °C 1007.8 hPa NW 13 km/h 16 km/h 67% 0.00 mm 514.79 W/m2
11:44 33.0 °C 26.0 °C 1007.8 hPa South 14 km/h 16 km/h 70% 0.00 mm 235.00 W/m2
11:49 32.0 °C 26.0 °C 1007.8 hPa South 13 km/h 24 km/h 70% 0.00 mm 479.55 W/m2
11:54 33.0 °C 26.0 °C 1007.8 hPa South 15 km/h 20 km/h 72% 0.00 mm 240.02 W/m2
11:59 33.0 °C 27.0 °C 1007.8 hPa SW 6 km/h 8 km/h 72% 0.00 mm 553.52 W/m2
12:04 33.0 °C 26.0 °C 1007.8 hPa West 5 km/h 8 km/h 69% 0.00 mm 539.94 W/m2
12:09 34.0 °C 26.0 °C 1007.5 hPa SW 10 km/h 12 km/h 68% 0.00 mm 575.37 W/m2
12:14 33.0 °C 26.0 °C 1007.5 hPa South 10 km/h 16 km/h 67% 0.00 mm 520.12 W/m2
12:19 33.0 °C 26.0 °C 1007.5 hPa SSW 6 km/h 8 km/h 68% 0.00 mm 296.73 W/m2
12:24 34.0 °C 26.0 °C 1007.5 hPa WNW 3 km/h 4 km/h 66% 0.00 mm 617.06 W/m2
12:29 34.0 °C 26.0 °C 1007.1 hPa WNW 8 km/h 12 km/h 63% 0.00 mm 602.53 W/m2
12:34 34.0 °C 26.0 °C 1007.1 hPa NW 14 km/h 16 km/h 64% 0.00 mm 591.93 W/m2
12:39 35.0 °C 26.0 °C 1007.1 hPa West 6 km/h 12 km/h 63% 0.00 mm 606.29 W/m2
12:44 35.0 °C 26.0 °C 1006.8 hPa SSE 8 km/h 12 km/h 63% 0.00 mm 584.59 W/m2
12:49 35.0 °C 27.0 °C 1006.8 hPa WSW 9 km/h 16 km/h 64% 0.00 mm 593.91 W/m2
12:54 35.0 °C 27.0 °C 1006.8 hPa SSE 6 km/h 12 km/h 63% 0.00 mm 602.92 W/m2
12:59 35.0 °C 27.0 °C 1006.8 hPa SW 4 km/h 8 km/h 62% 0.00 mm 604.21 W/m2
13:04 35.0 °C 26.0 °C 1006.8 hPa SW 11 km/h 16 km/h 63% 0.00 mm 584.40 W/m2
13:09 35.0 °C 27.0 °C 1006.8 hPa WSW 8 km/h 12 km/h 63% 0.00 mm 570.35 W/m2
13:14 35.0 °C 27.0 °C 1006.8 hPa South 7 km/h 8 km/h 63% 0.00 mm 576.37 W/m2
13:19 36.0 °C 27.0 °C 1006.4 hPa SSE 5 km/h 8 km/h 61% 0.00 mm 559.29 W/m2
13:24 35.0 °C 27.0 °C 1006.4 hPa West 8 km/h 12 km/h 63% 0.00 mm 548.70 W/m2
13:29 36.0 °C 27.0 °C 1006.4 hPa SSE 1 km/h 4 km/h 62% 0.00 mm 637.73 W/m2
13:34 35.0 °C 27.0 °C 1006.1 hPa SW 10 km/h 12 km/h 62% 0.00 mm 635.43 W/m2
13:39 35.0 °C 27.0 °C 1006.1 hPa SSW 9 km/h 12 km/h 63% 0.00 mm 578.08 W/m2
13:44 35.0 °C 27.0 °C 1006.1 hPa NW 8 km/h 12 km/h 63% 0.00 mm 521.10 W/m2
13:49 34.0 °C 26.0 °C 1006.1 hPa SW 10 km/h 16 km/h 65% 0.00 mm 500.13 W/m2
13:54 34.0 °C 26.0 °C 1005.8 hPa West 2 km/h 4 km/h 64% 0.00 mm 311.44 W/m2
13:59 34.0 °C 26.0 °C 1005.8 hPa South 9 km/h 12 km/h 65% 0.00 mm 596.21 W/m2
14:04 35.0 °C 27.0 °C 1005.8 hPa SW 6 km/h 8 km/h 64% 0.00 mm 557.31 W/m2
14:09 36.0 °C 27.0 °C 1005.4 hPa WSW 5 km/h 8 km/h 62% 0.00 mm 594.48 W/m2
14:14 36.0 °C 27.0 °C 1005.4 hPa SSE 10 km/h 12 km/h 61% 0.00 mm 595.70 W/m2
14:19 36.0 °C 27.0 °C 1005.4 hPa South 9 km/h 12 km/h 62% 0.00 mm 594.33 W/m2
14:24 36.0 °C 27.0 °C 1005.4 hPa South 10 km/h 12 km/h 62% 0.00 mm 590.24 W/m2
14:29 35.0 °C 27.0 °C 1005.4 hPa SSW 9 km/h 12 km/h 63% 0.00 mm 483.57 W/m2
14:34 35.0 °C 27.0 °C 1005.4 hPa SSW 9 km/h 12 km/h 64% 0.00 mm 374.98 W/m2
14:39 35.0 °C 27.0 °C 1005.4 hPa SSW 10 km/h 12 km/h 64% 0.00 mm 536.76 W/m2
14:44 35.0 °C 27.0 °C 1005.1 hPa West 6 km/h 12 km/h 64% 0.00 mm 256.49 W/m2
14:49 35.0 °C 27.0 °C 1005.1 hPa WNW 10 km/h 16 km/h 66% 0.00 mm 193.68 W/m2
14:54 34.0 °C 26.0 °C 1005.4 hPa SW 7 km/h 12 km/h 67% 0.00 mm 316.50 W/m2
14:59 34.0 °C 26.0 °C 1005.1 hPa WSW 13 km/h 16 km/h 67% 0.00 mm 468.64 W/m2
15:04 35.0 °C 27.0 °C 1005.1 hPa South 10 km/h 12 km/h 65% 0.00 mm 441.82 W/m2
15:09 35.0 °C 27.0 °C 1005.1 hPa WNW 7 km/h 12 km/h 65% 0.00 mm 477.67 W/m2
15:14 35.0 °C 27.0 °C 1005.1 hPa WNW 8 km/h 12 km/h 64% 0.00 mm 479.16 W/m2
15:19 35.0 °C 27.0 °C 1005.1 hPa South 9 km/h 12 km/h 63% 0.00 mm 507.05 W/m2
15:24 35.0 °C 27.0 °C 1005.1 hPa South 6 km/h 8 km/h 63% 0.00 mm 481.63 W/m2
15:29 35.0 °C 27.0 °C 1005.1 hPa SSW 12 km/h 16 km/h 63% 0.00 mm 449.61 W/m2
15:39 34.0 °C 27.0 °C 1005.1 hPa SW 5 km/h 8 km/h 65% 0.00 mm 206.40 W/m2
15:44 34.0 °C 27.0 °C 1005.1 hPa SW 12 km/h 16 km/h 66% 0.00 mm 141.12 W/m2
15:49 34.0 °C 26.0 °C 1005.1 hPa SSW 5 km/h 8 km/h 66% 0.00 mm 166.76 W/m2
15:54 34.0 °C 26.0 °C 1005.1 hPa SSW 5 km/h 8 km/h 66% 0.00 mm 165.15 W/m2
15:59 34.0 °C 26.0 °C 1005.1 hPa SW 5 km/h 8 km/h 66% 0.00 mm 242.27 W/m2
16:04 34.0 °C 27.0 °C 1005.1 hPa South 5 km/h 12 km/h 67% 0.00 mm 262.16 W/m2
16:09 34.0 °C 27.0 °C 1005.1 hPa WNW 9 km/h 12 km/h 67% 0.00 mm 264.93 W/m2
16:14 34.0 °C 27.0 °C 1005.1 hPa SW 9 km/h 12 km/h 67% 0.00 mm 327.59 W/m2
16:19 34.0 °C 27.0 °C 1005.1 hPa South 5 km/h 8 km/h 65% 0.00 mm 308.92 W/m2
16:24 34.0 °C 27.0 °C 1005.1 hPa South 8 km/h 12 km/h 67% 0.00 mm 154.43 W/m2
16:29 34.0 °C 27.0 °C 1005.1 hPa WSW 6 km/h 8 km/h 68% 0.00 mm 138.72 W/m2
16:34 33.0 °C 27.0 °C 1005.1 hPa NW 10 km/h 16 km/h 68% 0.00 mm 118.91 W/m2
16:39 33.0 °C 26.0 °C 1005.1 hPa WNW 13 km/h 16 km/h 68% 0.00 mm 163.80 W/m2
16:44 34.0 °C 27.0 °C 1005.1 hPa SSW 6 km/h 16 km/h 68% 0.00 mm 179.66 W/m2
16:49 34.0 °C 27.0 °C 1005.1 hPa ESE 3 km/h 4 km/h 68% 0.00 mm 178.31 W/m2
16:54 34.0 °C 27.0 °C 1005.1 hPa WNW 8 km/h 12 km/h 68% 0.00 mm 108.61 W/m2
16:59 34.0 °C 26.0 °C 1005.1 hPa North 1 km/h 4 km/h 67% 0.00 mm 119.37 W/m2
17:04 34.0 °C 27.0 °C 1005.1 hPa SW 3 km/h 4 km/h 68% 0.00 mm 117.98 W/m2
17:09 34.0 °C 27.0 °C 1005.4 hPa WNW 5 km/h 8 km/h 68% 0.00 mm 118.96 W/m2
17:14 34.0 °C 27.0 °C 1005.4 hPa NW 3 km/h 8 km/h 68% 0.00 mm 117.66 W/m2
17:19 33.0 °C 27.0 °C 1005.4 hPa SSE 3 km/h 4 km/h 69% 0.00 mm 86.51 W/m2
17:24 33.0 °C 27.0 °C 1005.4 hPa Calm     69% 0.00 mm 109.63 W/m2
17:29 33.0 °C 27.0 °C 1005.4 hPa WNW 1 km/h 4 km/h 68% 0.00 mm 110.71 W/m2
17:34 33.0 °C 27.0 °C 1005.4 hPa NW 3 km/h 8 km/h 69% 0.00 mm 91.89 W/m2
17:39 33.0 °C 27.0 °C 1005.4 hPa WNW 9 km/h 12 km/h 69% 0.00 mm 100.36 W/m2
17:49 33.0 °C 27.0 °C 1005.4 hPa Calm   4 km/h 69% 0.00 mm 103.20 W/m2
17:54 33.0 °C 26.0 °C 1005.4 hPa SE 5 km/h 8 km/h 68% 0.00 mm 63.27 W/m2
17:59 33.0 °C 26.0 °C 1005.8 hPa Calm   4 km/h 68% 0.00 mm 43.62 W/m2
18:04 33.0 °C 26.0 °C 1005.8 hPa Calm     69% 0.00 mm 32.78 W/m2
18:09 33.0 °C 26.0 °C 1005.8 hPa Calm     69% 0.00 mm 27.47 W/m2
18:14 33.0 °C 26.0 °C 1005.8 hPa SSW 2 km/h 4 km/h 70% 0.00 mm 19.79 W/m2
18:19 33.0 °C 27.0 °C 1005.8 hPa SSE 1 km/h 4 km/h 71% 0.00 mm 18.18 W/m2
18:24 32.0 °C 26.0 °C 1005.8 hPa Calm     71% 0.00 mm 11.99 W/m2
18:29 32.0 °C 26.0 °C 1005.8 hPa Calm     71% 0.00 mm 3.07 W/m2
18:34 32.0 °C 26.0 °C 1005.8 hPa Calm     72% 0.00 mm 0.25 W/m2
18:39 32.0 °C 26.0 °C 1005.8 hPa Calm   4 km/h 72% 0.00 mm 0.00 W/m2
18:44 32.0 °C 26.0 °C 1006.1 hPa Calm     73% 0.00 mm 0.00 W/m2
18:49 32.0 °C 26.0 °C 1006.1 hPa Calm     73% 0.00 mm 0.00 W/m2
18:54 32.0 °C 26.0 °C 1006.1 hPa Calm     74% 0.00 mm 0.00 W/m2
18:59 32.0 °C 26.0 °C 1006.4 hPa Calm     74% 0.00 mm 0.00 W/m2
19:04 32.0 °C 26.0 °C 1006.4 hPa South 2 km/h 4 km/h 74% 0.00 mm 0.00 W/m2
19:09 32.0 °C 26.0 °C 1006.4 hPa Calm     73% 0.00 mm 0.00 W/m2
19:14 32.0 °C 26.0 °C 1006.4 hPa Calm     74% 0.00 mm 0.00 W/m2
19:19 32.0 °C 26.0 °C 1006.4 hPa Calm     74% 0.00 mm 0.00 W/m2
19:24 32.0 °C 26.0 °C 1006.4 hPa Calm     74% 0.00 mm 0.00 W/m2
19:29 32.0 °C 26.0 °C 1006.8 hPa Calm     74% 0.00 mm 0.00 W/m2
19:34 32.0 °C 26.0 °C 1006.8 hPa Calm     74% 0.00 mm 0.00 W/m2
19:39 32.0 °C 26.0 °C 1006.8 hPa SE 5 km/h 8 km/h 74% 0.00 mm 0.00 W/m2
19:44 32.0 °C 26.0 °C 1006.8 hPa SSE 4 km/h 4 km/h 75% 0.00 mm 0.00 W/m2
19:49 31.0 °C 26.0 °C 1006.8 hPa Calm   4 km/h 75% 0.00 mm 0.00 W/m2
19:54 31.0 °C 26.0 °C 1006.8 hPa Calm     75% 0.00 mm 0.00 W/m2
19:59 32.0 °C 27.0 °C 1006.8 hPa SE 7 km/h 8 km/h 76% 0.00 mm 0.00 W/m2
20:04 31.0 °C 26.0 °C 1007.1 hPa SE 6 km/h 8 km/h 76% 0.00 mm 0.00 W/m2
20:09 31.0 °C 26.0 °C 1007.1 hPa SSE 2 km/h 4 km/h 76% 0.00 mm 0.00 W/m2
20:14 31.0 °C 27.0 °C 1007.5 hPa SE 10 km/h 12 km/h 77% 0.00 mm 0.00 W/m2
20:19 31.0 °C 26.0 °C 1007.5 hPa ESE 9 km/h 12 km/h 77% 0.00 mm 0.00 W/m2
20:24 31.0 °C 26.0 °C 1007.1 hPa SE 13 km/h 16 km/h 77% 0.00 mm 0.00 W/m2
20:29 31.0 °C 26.0 °C 1007.1 hPa SE 7 km/h 8 km/h 77% 0.00 mm 0.00 W/m2
20:34 31.0 °C 26.0 °C 1007.5 hPa SE 4 km/h 8 km/h 77% 0.00 mm 0.00 W/m2
20:39 31.0 °C 26.0 °C 1007.5 hPa ESE 5 km/h 8 km/h 77% 0.00 mm 0.00 W/m2
20:44 31.0 °C 26.0 °C 1007.5 hPa SE 5 km/h 8 km/h 77% 0.00 mm 0.00 W/m2
20:49 31.0 °C 26.0 °C 1007.5 hPa SE 2 km/h 8 km/h 78% 0.00 mm 0.00 W/m2
20:54 31.0 °C 26.0 °C 1007.5 hPa ESE 1 km/h 4 km/h 77% 0.00 mm 0.00 W/m2
20:59 31.0 °C 26.0 °C 1007.5 hPa East 1 km/h 4 km/h 77% 0.00 mm 0.00 W/m2
21:04 31.0 °C 26.0 °C 1007.5 hPa Calm   4 km/h 77% 0.00 mm 0.00 W/m2
21:09 31.0 °C 26.0 °C 1007.5 hPa Calm     77% 0.00 mm 0.00 W/m2
21:14 31.0 °C 26.0 °C 1007.5 hPa Calm   4 km/h 77% 0.00 mm 0.00 W/m2
21:19 31.0 °C 26.0 °C 1007.5 hPa Calm     77% 0.00 mm 0.00 W/m2
21:24 31.0 °C 26.0 °C 1007.5 hPa Calm     77% 0.00 mm 0.00 W/m2
21:29 31.0 °C 26.0 °C 1007.8 hPa Calm     78% 0.00 mm 0.00 W/m2
21:34 31.0 °C 26.0 °C 1007.8 hPa Calm     78% 0.00 mm 0.00 W/m2
21:39 31.0 °C 26.0 °C 1007.8 hPa Calm     78% 0.00 mm 0.00 W/m2
21:44 31.0 °C 26.0 °C 1007.8 hPa Calm     78% 0.00 mm 0.00 W/m2
21:46 31.0 °C 26.0 °C 1007.8 hPa Calm     78% 0.00 mm 0.00 W/m2
21:51 30.0 °C 26.0 °C 1007.8 hPa Calm     78% 0.00 mm 0.00 W/m2
21:59 31.0 °C 26.0 °C 1007.8 hPa Calm     77% 0.00 mm 0.00 W/m2
22:04 31.0 °C 26.0 °C 1007.8 hPa Calm     76% 0.00 mm 0.00 W/m2
22:09 30.0 °C 26.0 °C 1007.8 hPa NNE 4 km/h 4 km/h 76% 0.00 mm 0.00 W/m2
22:14 30.0 °C 26.0 °C 1007.8 hPa NE 4 km/h 8 km/h 77% 0.00 mm 0.00 W/m2
22:19 30.0 °C 26.0 °C 1007.8 hPa NE 1 km/h 4 km/h 77% 0.00 mm 0.00 W/m2
22:24 30.0 °C 26.0 °C 1007.8 hPa Calm   4 km/h 77% 0.00 mm 0.00 W/m2
22:29 30.0 °C 26.0 °C 1007.8 hPa NE 5 km/h 8 km/h 76% 0.00 mm 0.00 W/m2
22:34 30.0 °C 26.0 °C 1007.8 hPa NNE 5 km/h 8 km/h 77% 0.00 mm 0.00 W/m2
22:39 30.0 °C 25.0 °C 1007.8 hPa NE 6 km/h 8 km/h 76% 0.00 mm 0.00 W/m2
22:44 30.0 °C 25.0 °C 1007.8 hPa NE 2 km/h 4 km/h 76% 0.00 mm 0.00 W/m2
22:49 30.0 °C 25.0 °C 1008.1 hPa NNE 3 km/h 4 km/h 76% 0.00 mm 0.00 W/m2
22:54 30.0 °C 25.0 °C 1008.1 hPa NNE 3 km/h 4 km/h 76% 0.00 mm 0.00 W/m2
22:59 30.0 °C 25.0 °C 1008.1 hPa Calm   4 km/h 76% 0.00 mm 0.00 W/m2
23:04 30.0 °C 25.0 °C 1008.1 hPa NNE 1 km/h 4 km/h 76% 0.00 mm 0.00 W/m2
23:14 30.0 °C 25.0 °C 1008.1 hPa Calm     76% 0.00 mm 0.00 W/m2
23:19 30.0 °C 25.0 °C 1008.1 hPa Calm     77% 0.00 mm 0.00 W/m2
23:24 30.0 °C 25.0 °C 1008.1 hPa Calm     77% 0.00 mm 0.00 W/m2
23:29 30.0 °C 26.0 °C 1007.8 hPa Calm     78% 0.00 mm 0.00 W/m2
23:39 30.0 °C 26.0 °C 1007.8 hPa Calm     78% 0.00 mm 0.00 W/m2
23:44 30.0 °C 25.0 °C 1007.8 hPa Calm     78% 0.00 mm 0.00 W/m2
23:54 30.0 °C 25.0 °C 1008.1 hPa Calm     77% 0.00 mm 0.00 W/m2
23:59 30.0 °C 25.0 °C 1008.1 hPa Calm     78% 0.00 mm 0.00 W/m2
PIMOHWEATHER Philippines
Compliments of Weather Underground - 2 mb